Regional Weather Roundup
Issued by NWS

Home | Current Version | Previous Version | Text Only | Print | Product List | Glossary On
Versions: 1 2 3 4 5 6 7 8 9 10 11 12 13 14 15 16 17 18 19 20 21 22 23 24 25 26 27 28 29 30 31 32 33 34 35 36 37 38 39 40 41 42 43 44 45 46 47 48 49 50
000
ASUS43 KMPX 240801
RWRMN
WEATHER ROUNDUP FOR MINNESOTA
NATIONAL WEATHER SERVICE TWIN CITIES/CHANHASSEN MN
200 AM CST TUE JAN 24 2017


NOTE: "FAIR" INDICATES FEW OR NO CLOUDS BELOW 12,000 FEET WITH NO
SIGNIFICANT WEATHER AND/OR OBSTRUCTIONS TO VISIBILITY. N/A MEANS
CURRENT SKY AND/OR WEATHER CONDITIONS ARE NOT AVAILABLE.

MNZ060>063-068>070-240900-
   Twin Cities Metro

CITY           SKY/WX    TMP DP  RH WIND       PRES   REMARKS
TWIN CITIES    CLOUDY    33  27  78 N3        29.87R
ST PAUL        CLOUDY    32  29  88 W5        29.88R WCI  27
CRYSTAL        CLOUDY    32  25  75 NW7       29.86R WCI  26
BLAINE         CLOUDY    34  30  86 CALM      29.86R
LAKEVILLE        N/A     30  28  93 NW3       29.87R
EDEN PRAIRIE   CLOUDY    32  27  81 W6        29.86R WCI  26
SOUTH ST PAUL  CLOUDY    33  30  89 W3        29.87R
LAKE ELMO      CLOUDY    32  32 100 CALM      29.87R FOG
$$
MNZ001>005-007-008-013>017-022>024-027-028-240900-
   Northwest Minnesota

CITY           SKY/WX    TMP DP  RH WIND       PRES   REMARKS
BEMIDJI        CLOUDY    27  23  84 W7        29.84R WCI  19
HALLOCK        CLOUDY    27  25  93 SW9       29.81S WCI  17
ROSEAU         CLOUDY    27  21  80 SW8       29.82R WCI  18
WARROAD        CLOUDY    25  21  86 SW7       29.82R WCI  17
THIEF RVR FALL CLOUDY    24  21  88 W13       29.84S WCI  12
CROOKSTON      CLOUDY    27  21  80 NW12      29.86S WCI  16
FOSSTON        CLOUDY    27  23  86 W7        29.84S WCI  19
DETROIT LAKES  CLOUDY    30  27  86 W3        29.85S
MOORHEAD       CLOUDY    30  25  80 W3        29.87S
PARK RAPIDS    CLOUDY    29  21  72 NW12      29.83R WCI  19
MAHNOMEN       CLOUDY    28  24  84 W8        29.84S WCI  20
$$
MNZ006-009>011-018-025>026-240900-
   North Central Minnesota

CITY           SKY/WX    TMP DP  RH WIND       PRES   REMARKS
BAUDETTE       CLOUDY    28  22  78 SW5       29.81R WCI  23
FLAG ISLAND    CLOUDY    27  23  86 SW9       29.80R WCI  17
INTL FALLS     CLOUDY    28  24  85 S5        29.82R WCI  23
WASKISH        CLOUDY    28  25  86 SW7       29.83S WCI  21
BIG FORK       CLOUDY    30  27  86 CALM      29.83R
LONGVILLE      CLOUDY    30  25  80 W6        29.84R WCI  24
GRAND RAPIDS   CLOUDY    30  26  85 W3        29.85R
CRANE LAKE     CLOUDY    30  28  93 CALM      29.84R
ORR            CLOUDY    28  25  86 CALM      29.80R
COOK           CLOUDY    30  28  93 CALM      29.83R
WALKER         CLOUDY    28  23  82 NW5       29.84R WCI  23
$$
MNZ012-019>021-037-240900-
   Northeast Minnesota

CITY           SKY/WX    TMP DP  RH WIND       PRES   REMARKS
DULUTH         FLURRIES  32  29  88 N7        29.81R WCI  26
ELY            CLOUDY    30  28  93 CALM      29.80S
HIBBING        CLOUDY    29  27  92 CALM      29.82R
EVELETH        CLOUDY    32  28  83 W5        29.83R WCI  28
DULUTH HARBOR  CLOUDY    34  32  93 W3        29.86R
TWO HARBORS    CLOUDY    36  30  80 W3        29.81R HAZE
SILVER BAY     CLOUDY    34  34 100 CALM      29.80R
GRAND MARAIS     N/A     36  35  96 CALM      29.81R
G MARAIS ARPRT CLOUDY    30  28  93 N5        29.78R WCI  25
$$
MNZ029>031-032-039>041-046>048-054>057-064-240900-
   West Central Minnesota

CITY           SKY/WX    TMP DP  RH WIND       PRES   REMARKS
FERGUS FALLS   CLOUDY    30  27  86 CALM      29.90R
WHEATON        CLOUDY    30  28  93 CALM      29.88S
MORRIS         CLOUDY    30  27  86 CALM      29.85R
ALEXANDRIA     CLOUDY    30  24  78 NW5       29.85R WCI  25
ELBOW LAKE     CLOUDY    30  28  93 CALM      29.86R FOG
WADENA         CLOUDY    28  25  86 CALM      29.84S
GLENWOOD       CLOUDY    30  25  80 CALM      29.85S
APPLETON       CLOUDY    32  28  86 CALM      29.85S
ORTONVILLE     CLOUDY    30  27  86 CALM      29.85R
MADISON        CLOUDY    34  30  86 CALM      29.85S
WILLMAR        CLOUDY    32  28  86 CALM      29.87R
$$
MNZ033>034-036-042>043-049>051-058-059-240900-
   Central Minnesota

CITY           SKY/WX    TMP DP  RH WIND       PRES   REMARKS
ST CLOUD       CLOUDY    31  27  85 NW6       29.85S WCI  25
SAUK CENTRE    CLOUDY    30  26  84 CALM      29.86R
PAYNESVILLE    CLOUDY    30  30  99 W5        29.86R WCI  26
AITKIN         CLOUDY    34  25  69 CALM      29.83S
PINE RIVER     CLOUDY    30  25  80 CALM      29.88S
BRAINERD       CLOUDY    30  25  81 W3        29.85R
STAPLES        CLOUDY    28  25  86 NW5       29.85R WCI  23
LONG PRAIRIE   CLOUDY    30  27  86 CALM      29.85S
LITTLE FALLS   CLOUDY    32  27  80 CALM      29.86S
LITCHFIELD     CLOUDY    32  28  86 CALM      29.86S
BUFFALO        CLOUDY    32  26  78 CALM      29.87S
MAPLE LAKE     CLOUDY    32  28  86 CALM      29.87S
HUTCHINSON     CLOUDY    32  29  88 W3        29.87S
$$
MNZ037-044-045-052-053-240900-
   East Central Minnesota

CITY           SKY/WX    TMP DP  RH WIND       PRES   REMARKS
PRINCETON      CLOUDY    32  27  80 NW6       29.86S WCI  26
MORA           CLOUDY    32  27  80 CALM      29.87R
CAMBRIDGE      CLOUDY    34  28  80 CALM      29.85R
RUSH CITY      CLOUDY    32  28  86 W3        29.86R
MOOSE LAKE     CLOUDY    32  30  93 CALM      29.83R
HINCKLEY       CLOUDY    32  32 100 W3        29.85R
CLOQUET        CLOUDY    30  28  93 CALM      29.83R
MCGREGOR       CLOUDY    32  28  86 CALM      29.85R
$$
MNZ071>073-080-081-089-090-097-098-240900-
   Southwest Minnesota

CITY           SKY/WX    TMP DP  RH WIND       PRES   REMARKS
MONTEVIDEO     CLOUDY    30  30 100 CALM      29.87S
GRANITE FALLS  CLOUDY    33  28  84 CALM      29.87R
CANBY          CLOUDY    32  30  93 CALM      29.85S
MARSHALL       CLOUDY    31  28  89 E5        29.85R WCI  26
REDWOOD FALLS  CLOUDY    32  27  81 CALM      29.85S
OLIVIA         CLOUDY    32  28  86 CALM      29.85S
PIPESTONE      CLOUDY    30  30 100 SE6       29.79S FOG     WCI  24
WINDOM         CLOUDY    30  28  93 CALM      29.83S
WORTHINGTON    CLOUDY    31  29  92 SE7       29.81F WCI  24
JACKSON        CLOUDY    30  28  93 CALM      29.83S
TRACY          CLOUDY    32  29  90 SE5       29.83F WCI  27
SLAYTON        CLOUDY    30  28  94 E6        29.82S WCI  24
$$
MNZ065>067-074>077-082>085-091>093-240900-
   South Central Minnesota

CITY           SKY/WX    TMP DP  RH WIND       PRES   REMARKS
MANKATO        CLOUDY    31  30  96 N3        29.86S
NEW ULM        CLOUDY    30  28  93 CALM      29.86S
ST JAMES       CLOUDY    30  28  93 CALM      29.86S
FAIRMONT       CLOUDY    31  29  92 E3        29.84F
GLENCOE        CLOUDY    32  30  92 CALM      29.86R
OWATONNA       CLOUDY    30  27  86 CALM      29.86R
WASECA         CLOUDY    32  30  93 CALM      29.87S
ALBERT LEA     CLOUDY    30  28  93 CALM      29.85S
$$
MNZ078>079-086>088-094>096-240900-
   Southeast Minnesota

CITY           SKY/WX    TMP DP  RH WIND       PRES   REMARKS
ROCHESTER      CLOUDY    30  28  92 SW3       29.84S
RED WING       CLOUDY    32  28  86 CALM      29.86R FOG
STANTON        CLOUDY    33  29  88 W3        29.85R
DODGE CENTER   CLOUDY    30  28  93 MISG      29.84S
WINONA         CLOUDY    34  32  93 CALM      29.87S
AUSTIN         CLOUDY    30  27  86 NW3       29.85S
PRESTON        CLOUDY    30  27  86 W5        29.85R WCI  26
$$
ABBREVIATIONS USED IN REMARKS
   TC - TEMPERATURES IN CELSIUS
  WCI - WIND CHILL INDEX
   HX - HEAT INDEX
  VSB - VISIBILITY
$$




USA.gov is the U.S. government's official web portal to all federal, state and local government web resources and services.